[[{"header":{"parameterUnit":"m.s-1","parameterCategory":1,"la1":30.2991,"la2":30.254,"lo1":-89.0895,"lo2":-89.0444,"dy":0.0017,"dx":0.0017,"nx":28,"ny":28,"refTime":"2024-04-16T09:00:00:Z","depth":0,"parameterNumber":2,"parameterNumberName":"U-component_of_WINDS"},"data":[0,0,0,0,0,0,0,0,0,0,0,0,0,0,0,0,0,0,0,0,0,0,0,0,0,0,0,0,0,0,0,0,0,0,0,0,0,0,0,0,0,0,0,0,0,0,0,0,0,0,0,0,0,0,0,0,0,0,-1.4738,-1.4738,0,-1.4803,-1.4803,-1.4804,-1.4818,-1.4818,-1.4817,-1.4817,-1.4883,-1.4885,-1.4887,0,0,0,0,0,0,0,0,0,0,0,0,0,-1.4626,-1.4628,-1.4738,-1.4738,-1.4739,-1.4803,-1.4804,-1.4804,-1.4818,-1.4818,-1.4817,-1.4817,-1.4882,-1.4885,-1.4888,0,0,0,0,0,0,0,0,0,0,0,0,0,-1.4681,-1.4629,-1.4737,-1.4754,-1.4756,-1.4802,-1.4804,-1.4805,-1.4819,-1.4818,-1.4817,-1.4816,-1.4881,-1.4885,-1.4888,-1.4922,0,0,-1.4898,-1.4899,0,0,0,0,0,0,0,0,-1.4678,-1.4685,-1.4751,-1.4753,-1.4755,-1.4802,-1.4789,-1.4844,-1.4819,-1.4795,-1.4817,-1.4816,-1.4857,-1.4862,-1.4876,-1.4926,-1.4928,-1.4898,-1.49,-1.4902,-1.4903,0,0,0,0,0,0,0,-1.4674,-1.4683,-1.4763,-1.4752,-1.4754,-1.4758,-1.4765,-1.4799,-1.4829,-1.4797,-1.4798,-1.4806,-1.4858,-1.4872,-1.4877,-1.4929,-1.4898,-1.4901,-1.4903,-1.4904,-1.5012,-1.5013,0,0,0,0,0,0,-1.4668,-1.4679,-1.4761,-1.4765,-1.4714,-1.4761,-1.4769,-1.4788,-1.4828,-1.4834,-1.4806,-1.4806,-1.4867,-1.4873,-1.488,-1.4923,-1.4902,-1.4905,-1.4907,-1.5012,-1.5013,-1.5014,0,0,0,0,0,0,-1.4665,-1.4675,-1.4759,-1.4723,-1.4734,-1.4764,-1.4785,-1.4789,-1.4804,-1.4836,-1.4841,-1.4816,-1.4867,-1.4875,-1.4912,-1.4926,-1.4906,-1.4909,-1.5011,-1.5012,-1.5013,-1.5011,0,0,0,0,0,0,-1.4662,-1.4674,-1.4687,-1.4723,-1.4736,-1.479,-1.4785,-1.4791,-1.481,-1.481,-1.4846,-1.4851,-1.4867,-1.4907,-1.4915,-1.493,-1.4912,-1.5009,-1.5011,-1.5013,-1.501,-1.5012,-1.5013,0,0,0,0,0,-1.4658,-1.4683,-1.4688,-1.4697,-1.4753,-1.479,-1.4798,-1.4815,-1.4811,-1.4824,-1.4845,-1.485,-1.4923,-1.4911,-1.492,-1.4936,-1.5009,-1.5011,-1.5013,-1.5009,-1.5011,-1.5013,0,0,0,0,0,0,-1.4647,-1.4688,-1.4693,-1.4731,-1.4757,-1.4793,-1.481,-1.4817,-1.4845,-1.4845,-1.4865,-1.4873,-1.4909,-1.4927,-1.4912,-1.4972,-1.4966,-1.497,-1.496,-1.4962,-1.4964,-1.4959,-1.4915,0,0,0,0,0,-1.465,-1.4677,-1.4711,-1.4741,-1.4754,-1.478,-1.4797,-1.4809,-1.4837,-1.4848,-1.4871,-1.4898,-1.4927,-1.4946,-1.4974,-1.5013,-1.5021,-1.5028,-1.503,-1.5032,-1.5035,-1.5057,-1.5061,-1.502,-1.502,-1.502,0,0,-1.4654,-1.468,-1.4695,-1.474,-1.4761,-1.4789,-1.4789,-1.4818,-1.484,-1.4852,-1.4889,-1.4907,-1.4938,-1.4977,-1.4994,-1.4992,-1.5048,-1.5034,-1.5035,-1.5037,-1.506,-1.5063,-1.5067,-1.5022,-1.5021,-1.5021,0,0,-1.4676,-1.4699,-1.4726,-1.4748,-1.4782,-1.4799,-1.4806,-1.4841,-1.4853,-1.4891,-1.4901,-1.4927,-1.4976,-1.4999,-1.5017,-1.505,-1.5056,-1.5059,-1.5068,-1.509,-1.5093,-1.5096,-1.5108,-1.5112,-1.5062,-1.5062,-1.5062,0,-1.4678,-1.472,-1.474,-1.4769,-1.4788,-1.4802,-1.4831,-1.4851,-1.4892,-1.4905,-1.4902,-1.4966,-1.4988,-1.5032,-1.504,-1.5054,-1.5063,-1.5054,-1.5091,-1.5094,-1.5097,-1.5109,-1.5114,-1.5062,-1.5062,-1.5062,-1.5062,0,-1.472,-1.475,-1.4768,-1.4808,-1.483,-1.4858,-1.4883,-1.4902,-1.4913,-1.4931,-1.4969,-1.4997,-1.5031,-1.5043,-1.5053,-1.5089,-1.5086,-1.5087,-1.5081,-1.5101,-1.5113,-1.5117,-1.5062,-1.5062,-1.5062,-1.5062,0,0,-1.4736,-1.4788,-1.4794,-1.4813,-1.4851,-1.4874,-1.4905,-1.4939,-1.4956,-1.4984,-1.501,-1.5053,-1.5054,-1.5074,-1.5087,-1.5106,-1.5132,-1.5105,-1.5106,-1.5109,-1.5173,-1.5172,-1.5177,-1.5136,-1.5137,-1.5138,-1.5171,0,-1.4763,-1.4817,-1.4836,-1.4881,-1.4909,-1.4923,-1.4949,-1.4976,-1.4994,-1.5021,-1.5041,-1.5071,-1.507,-1.5083,-1.5103,-1.5124,-1.5145,-1.5122,-1.5161,-1.5162,-1.5152,-1.5183,-1.5182,-1.5211,-1.5175,-1.5176,-1.5177,0,-1.4801,-1.4831,-1.4878,-1.4914,-1.4927,-1.495,-1.4984,-1.5009,-1.504,-1.5052,-1.5076,-1.5088,-1.5121,-1.5113,-1.5159,-1.5143,-1.5161,-1.5174,-1.5175,-1.5179,-1.517,-1.5187,-1.5221,-1.5225,-1.5184,-1.5183,-1.5183,0,-1.4808,-1.486,-1.4895,-1.4911,-1.4954,-1.497,-1.4989,-1.5019,-1.5039,-1.5069,-1.5082,-1.5116,-1.5134,-1.5159,-1.518,-1.5173,-1.5224,-1.5218,-1.5235,-1.5235,-1.5245,-1.5243,-1.5281,-1.5256,-1.5256,-1.5256,-1.5256,0,-1.4836,-1.4865,-1.4899,-1.492,-1.4953,-1.4976,-1.5007,-1.5027,-1.5055,-1.5081,-1.5095,-1.5119,-1.5146,-1.5174,-1.5191,-1.5226,-1.5234,-1.5245,-1.5249,-1.5244,-1.5242,-1.5254,-1.5253,-1.5257,-1.5257,-1.5257,-1.5257,0,-1.4849,-1.4873,-1.4912,-1.4951,-1.4961,-1.4983,-1.5016,-1.5038,-1.5058,-1.509,-1.5099,-1.513,-1.5164,-1.5188,-1.5231,-1.5242,-1.5281,-1.5285,-1.527,-1.5272,-1.5287,-1.5286,-1.5334,-1.5341,-1.5312,-1.5312,-1.5312,0,-1.4865,-1.4887,-1.4928,-1.4947,-1.4966,-1.4995,-1.5016,-1.504,-1.5061,-1.5099,-1.5116,-1.5151,-1.518,-1.5234,-1.526,-1.5294,-1.5298,-1.5313,-1.5303,-1.5297,-1.5299,-1.5297,-1.5299,-1.5314,-1.5314,-1.5314,-1.5315,0,-1.4891,-1.4902,-1.4931,-1.4965,-1.499,-1.5018,-1.5046,-1.506,-1.5089,-1.5112,-1.5147,-1.517,-1.5215,-1.5249,-1.5286,-1.5305,-1.5315,-1.5318,-1.5323,-1.5317,-1.5308,-1.5313,-1.5274,-1.5316,-1.5316,-1.5316,-1.5316,-1.5316,-1.4905,-1.4926,-1.4959,-1.4991,-1.5015,-1.5041,-1.5064,-1.5087,-1.5116,-1.5155,-1.5167,-1.5204,-1.5236,-1.5286,-1.5306,-1.5335,-1.5334,-1.5342,-1.5344,-1.5346,-1.5346,-1.5304,-1.5342,-1.5342,-1.5342,-1.5342,-1.5342,0,-1.4932,-1.4954,-1.4984,-1.5023,-1.5049,-1.5056,-1.5088,-1.5109,-1.5141,-1.517,-1.5199,-1.524,-1.5274,-1.5303,-1.5339,-1.5357,-1.5362,-1.5365,-1.5364,-1.5368,-1.5345,-1.5336,-1.536,-1.536,-1.536,-1.536,-1.536,-1.536,-1.4949,-1.4985,-1.5,-1.5048,-1.507,-1.5106,-1.5124,-1.5148,-1.5172,-1.5216,-1.5245,-1.5264,-1.5294,-1.5332,-1.5364,-1.5372,-1.5384,-1.5386,-1.5395,-1.5372,-1.537,-1.5368,-1.536,-1.5389,-1.5389,-1.5417,-1.5417,-1.5417]},{"header":{"parameterUnit":"m.s-1","parameterCategory":1,"la1":30.2991,"la2":30.254,"lo1":-89.0895,"lo2":-89.0444,"dy":0.0017,"dx":0.0017,"nx":28,"ny":28,"refTime":"2024-04-16T09:00:00:Z","depth":0,"parameterNumber":3,"parameterNumberName":"V-component_of_WINDS"},"data":[0,0,0,0,0,0,0,0,0,0,0,0,0,0,0,0,0,0,0,0,0,0,0,0,0,0,0,0,0,0,0,0,0,0,0,0,0,0,0,0,0,0,0,0,0,0,0,0,0,0,0,0,0,0,0,0,0,0,3.355,3.355,0,3.3611,3.3612,3.3612,3.3617,3.3616,3.3616,3.3615,3.3673,3.3675,3.3677,0,0,0,0,0,0,0,0,0,0,0,0,0,3.3432,3.3434,3.355,3.355,3.3551,3.3611,3.3612,3.3612,3.3617,3.3616,3.3616,3.3615,3.3672,3.3674,3.3677,0,0,0,0,0,0,0,0,0,0,0,0,0,3.3487,3.3435,3.3549,3.3561,3.3562,3.3611,3.3612,3.3613,3.3617,3.3616,3.3615,3.3614,3.3671,3.3674,3.3677,3.3717,0,0,3.3687,3.3689,0,0,0,0,0,0,0,0,3.3484,3.3491,3.3558,3.356,3.3562,3.3605,3.3591,3.3647,3.3618,3.3596,3.3615,3.3614,3.3651,3.3655,3.3669,3.3719,3.3722,3.3687,3.3689,3.3691,3.3692,0,0,0,0,0,0,0,3.348,3.3488,3.3574,3.3559,3.3562,3.3561,3.3568,3.3602,3.3628,3.3598,3.3599,3.3606,3.3651,3.3666,3.367,3.3723,3.3687,3.369,3.3692,3.3693,3.3808,3.3809,0,0,0,0,0,0,3.3475,3.3485,3.3572,3.3575,3.352,3.3564,3.3572,3.3592,3.3628,3.3632,3.3607,3.3606,3.3661,3.3667,3.3672,3.3721,3.3691,3.3694,3.3696,3.3807,3.3808,3.381,0,0,0,0,0,0,3.3472,3.3482,3.3569,3.3531,3.3542,3.3567,3.359,3.3594,3.3609,3.3634,3.3639,3.3617,3.366,3.3668,3.3706,3.3723,3.3695,3.3698,3.3806,3.3808,3.3809,3.3818,0,0,0,0,0,0,3.3469,3.3481,3.3498,3.3531,3.3544,3.3603,3.3592,3.3596,3.3615,3.3614,3.3645,3.3649,3.366,3.3701,3.3709,3.3727,3.3701,3.3804,3.3807,3.3809,3.3816,3.382,3.3823,0,0,0,0,0,3.3464,3.3497,3.3499,3.3509,3.3565,3.3604,3.3611,3.3625,3.3616,3.3632,3.3649,3.3648,3.372,3.3705,3.3714,3.3733,3.3803,3.3806,3.3808,3.3815,3.3819,3.3823,0,0,0,0,0,0,3.3463,3.3501,3.3504,3.3548,3.3573,3.3605,3.3626,3.3629,3.3655,3.3654,3.3668,3.3674,3.3712,3.3726,3.3709,3.3773,3.376,3.3765,3.3762,3.3766,3.377,3.3765,3.3703,0,0,0,0,0,3.3468,3.3498,3.3529,3.3565,3.3578,3.36,3.3617,3.3626,3.3651,3.3661,3.3681,3.3704,3.3732,3.375,3.3777,3.3818,3.3825,3.3836,3.3839,3.3841,3.3845,3.3868,3.3873,3.3818,3.3818,3.3818,0,0,3.3478,3.3503,3.3521,3.3566,3.3586,3.3616,3.3608,3.364,3.3662,3.3666,3.3703,3.3718,3.3745,3.3785,3.3804,3.3798,3.3862,3.3845,3.3847,3.3849,3.3871,3.3876,3.388,3.382,3.3819,3.3819,0,0,3.3512,3.3534,3.3566,3.3587,3.3619,3.3633,3.3641,3.3673,3.3684,3.3722,3.3726,3.3751,3.3799,3.3818,3.3834,3.3876,3.3876,3.3884,3.39,3.3922,3.3927,3.393,3.3945,3.395,3.3887,3.3887,3.3887,0,3.352,3.3566,3.3582,3.3614,3.3633,3.364,3.3672,3.3691,3.3729,3.3742,3.3736,3.3796,3.3815,3.3859,3.387,3.3882,3.3891,3.388,3.3925,3.3929,3.3933,3.3947,3.3952,3.3888,3.3888,3.3888,3.3888,0,3.3574,3.3607,3.3629,3.3668,3.3689,3.3721,3.374,3.376,3.3766,3.3781,3.3819,3.3842,3.3874,3.3886,3.3891,3.3931,3.3926,3.3922,3.391,3.3939,3.3952,3.3957,3.3889,3.3889,3.3889,3.3888,0,0,3.3608,3.3656,3.3664,3.3682,3.3718,3.3742,3.3773,3.3806,3.3823,3.3849,3.3875,3.3916,3.3912,3.3931,3.3939,3.3958,3.3989,3.3951,3.3952,3.3957,3.4033,3.4036,3.4042,3.399,3.3991,3.3992,3.4031,0,3.3646,3.3705,3.372,3.3769,3.3798,3.3805,3.3833,3.3857,3.3871,3.3897,3.3912,3.3941,3.3934,3.3946,3.3965,3.3981,3.4004,3.3979,3.4013,3.4014,3.4006,3.4049,3.4052,3.4088,3.4036,3.4037,3.4038,0,3.3698,3.3727,3.3779,3.3812,3.3824,3.3849,3.3881,3.3906,3.3932,3.3941,3.3962,3.3969,3.4001,3.3987,3.4031,3.4013,3.4028,3.4038,3.4039,3.4043,3.4027,3.4053,3.41,3.4105,3.4046,3.4046,3.4045,0,3.3717,3.3769,3.3807,3.3822,3.3861,3.3878,3.3894,3.3921,3.3939,3.3966,3.3978,3.4008,3.4024,3.4046,3.406,3.4049,3.4102,3.409,3.4109,3.4109,3.412,3.4119,3.4169,3.413,3.413,3.413,3.413,0,3.3757,3.3789,3.3817,3.384,3.3876,3.3892,3.3926,3.3942,3.3966,3.3992,3.3999,3.4022,3.4039,3.4065,3.4075,3.411,3.4117,3.4124,3.4126,3.4123,3.4122,3.4133,3.413,3.4131,3.4131,3.413,3.413,0,3.3784,3.3804,3.3847,3.388,3.3889,3.3914,3.3942,3.3964,3.3979,3.4011,3.402,3.4042,3.4073,3.4089,3.4127,3.4134,3.4172,3.4173,3.4163,3.4164,3.4183,3.4181,3.4241,3.425,3.4205,3.4206,3.4206,0,3.3808,3.3833,3.387,3.3889,3.3906,3.3936,3.3956,3.3973,3.3993,3.4025,3.4043,3.4075,3.4101,3.4149,3.4168,3.4196,3.4198,3.4217,3.4202,3.4198,3.4198,3.4196,3.4198,3.422,3.422,3.422,3.4221,0,3.3849,3.3858,3.3887,3.392,3.3944,3.397,3.3996,3.401,3.4031,3.4053,3.4085,3.4106,3.4145,3.4175,3.4206,3.4221,3.4224,3.4225,3.4231,3.4228,3.4222,3.4225,3.417,3.4224,3.4223,3.4223,3.4223,3.4223,3.3876,3.3898,3.3928,3.396,3.3982,3.4006,3.4028,3.4047,3.4075,3.4109,3.4117,3.4151,3.4176,3.4218,3.4234,3.426,3.4256,3.4264,3.4266,3.4268,3.4269,3.4218,3.4265,3.4265,3.4265,3.4265,3.4265,0,3.3917,3.3936,3.3966,3.4003,3.4028,3.403,3.4059,3.4079,3.411,3.4134,3.416,3.4197,3.4227,3.4248,3.4278,3.4295,3.4297,3.4302,3.4301,3.4304,3.4271,3.4263,3.43,3.43,3.43,3.43,3.43,3.43,3.3941,3.398,3.3992,3.404,3.4059,3.4094,3.411,3.4132,3.4152,3.4193,3.4219,3.4233,3.4256,3.4288,3.4315,3.4321,3.4331,3.4336,3.4342,3.431,3.4306,3.4303,3.4295,3.4339,3.4339,3.4373,3.4373,3.4373]}]]